Location: A�t �Alizem
(31.2076°N, 8.7872°W)
Time: 20:09:57
(UTC+00:00)

N. Korean satellite - Pass Details

Date: 26 September 2021
Orbit: 450 x 495 km, 97.3° (Epoch: 25 October)

Event Time Altitude Azimuth Distance (km) Brightness Sun altitude
Rises 04:42:08 0° 41° (NE) 2,539 11.0 -22.8°
Maximum altitude 04:46:36 10° 94° (E) 1,649 10.3 -21.9°
Drops below altitude 10° 04:47:11 10° 103° (ESE) 1,668 10.2 -21.8°
Sets 04:51:05 0° 147° (SSE) 2,553 10.5 -21.0°
